Temp
-12 -12 -11 -11 -12 -12 -12 -13 -13 -13 -13 -13 -13 -13 -13 -12 -12 -12 -12 -12 -12 -11 -11 -11 -11 -11 -11 -11 -11 -11 -11 -11 -11 -11 -11 -11 -11 -11 -12 -12 -12 -12 -12 -12 -12 -12 -12 -12 -12 -12 -12 -12 -12 -12 -12 -13 -13 -13 -13 -13 -14 -14 -14
-13 -12 -12 -12 -12 -12 -12 -12 -13 -13 -13 -13 -13 -13 -13 -13 -12 -12 -12 -12 -12 -12 -11 -11 -11 -11 -11 -11 -11 -11 -11 -11 -11 -11 -11 -11 -11 -11 -12 -12 -12 -12 -12 -12 -12 -12 -12 -12 -12 -12 -12 -12 -12 -12 -13 -13 -13 -13 -13 -13 -14 -14 -14
-12 -12 -12 -12 -12 -12 -12 -12 -12 -12 -13 -13 -13 -13 -13 -13 -12 -12 -12 -12 -12 -12 -12 -11 -11 -11 -11 -11 -11 -11 -11 -11 -11 -11 -11 -11 -11 -11 -12 -12 -12 -12 -12 -12 -12 -12 -12 -12 -12 -12 -12 -12 -12 -12 -13 -13 -13 -13 -13 -13 -13 -14 -14
-12 -12 -12 -12 -12 -12 -12 -12 -12 -12 -13 -13 -13 -13 -13 -13 -12 -12 -12 -12 -12 -12 -12 -11 -11 -11 -11 -11 -11 -11 -11 -11 -11 -11 -11 -11 -11 -12 -12 -12 -12 -12 -12 -12 -12 -12 -12 -12 -12 -12 -12 -12 -12 -13 -13 -13 -13 -13 -13 -13 -13 -14 -13
-12 -12 -12 -12 -12 -12 -12 -12 -12 -13 -13 -13 -13 -13 -13 -13 -12 -12 -12 -12 -12 -12 -12 -12 -11 -11 -11 -11 -11 -11 -11 -11 -11 -11 -11 -11 -11 -12 -12 -12 -12 -12 -12 -12 -12 -12 -12 -12 -12 -12 -12 -12 -13 -13 -13 -13 -13 -13 -13 -13 -13 -13 -13
-12 -12 -12 -12 -12 -12 -12 -12 -12 -13 -13 -13 -13 -13 -13 -13 -12 -12 -12 -12 -12 -12 -12 -12 -11 -11 -11 -11 -11 -11 -11 -11 -11 -11 -11 -11 -11 -12 -12 -12 -12 -12 -12 -12 -12 -12 -12 -12 -12 -12 -12 -12 -13 -13 -13 -13 -13 -13 -14 -13 -13 -13 -14
-13 -13 -13 -12 -12 -12 -12 -12 -12 -13 -13 -13 -13 -13 -12 -12 -12 -12 -12 -12 -12 -12 -12 -12 -12 -11 -11 -11 -11 -11 -11 -11 -11 -11 -11 -11 -12 -12 -12 -12 -12 -12 -12 -12 -12 -12 -12 -12 -12 -12 -12 -12 -13 -13 -13 -13 -13 -13 -13 -13 -13 -13 -14
-13 -13 -13 -13 -12 -12 -12 -12 -12 -13 -13 -13 -13 -13 -12 -12 -12 -12 -12 -12 -12 -12 -12 -12 -12 -11 -11 -11 -11 -11 -11 -12 -12 -12 -12 -11 -12 -12 -12 -12 -12 -12 -12 -12 -12 -12 -12 -12 -12 -12 -12 -12 -13 -13 -13 -13 -13 -13 -13 -13 -13 -13 -13
-13 -13 -13 -13 -13 -12 -12 -12 -12 -12 -13 -13 -13 -13 -12 -12 -12 -12 -12 -13 -13 -12 -12 -12 -11 -11 -11 -11 -11 -11 -11 -12 -12 -12 -12 -12 -12 -12 -12 -12 -12 -12 -12 -12 -12 -12 -12 -12 -12 -12 -12 -13 -13 -13 -13 -13 -13 -13 -14 -13 -13 -13 -14
-13 -13 -13 -13 -13 -13 -12 -12 -12 -12 -12 -13 -13 -13 -12 -12 -12 -12 -13 -13 -13 -12 -12 -12 -12 -11 -11 -11 -11 -12 -12 -12 -12 -12 -12 -12 -12 -12 -12 -12 -12 -12 -12 -12 -12 -12 -12 -12 -12 -13 -13 -13 -13 -13 -13 -13 -13 -13 -14 -14 -14 -14 -14
-13 -13 -13 -13 -13 -13 -13 -12 -12 -12 -12 -13 -13 -13 -13 -12 -12 -13 -13 -13 -13 -13 -12 -12 -12 -12 -11 -11 -11 -11 -12 -12 -12 -12 -12 -12 -12 -12 -12 -12 -12 -12 -12 -12 -12 -12 -12 -12 -12 -13 -13 -13 -13 -13 -13 -14 -14 -14 -14 -14 -14 -14 -14
-13 -13 -13 -13 -13 -13 -13 -13 -13 -12 -12 -12 -12 -13 -13 -12 -12 -13 -13 -13 -13 -13 -12 -12 -12 -12 -12 -11 -11 -11 -12 -12 -12 -12 -12 -12 -12 -12 -12 -12 -12 -12 -12 -12 -12 -12 -12 -12 -12 -13 -13 -13 -13 -13 -13 -14 -14 -14 -14 -15 -15 -14 -14
-13 -13 -13 -13 -13 -13 -13 -13 -13 -13 -13 -12 -12 -13 -13 -12 -13 -13 -13 -13 -13 -13 -12 -12 -12 -12 -12 -11 -11 -12 -12 -12 -12 -12 -12 -12 -12 -12 -12 -12 -12 -12 -12 -12 -13 -13 -13 -12 -12 -13 -13 -13 -13 -13 -14 -14 -14 -14 -14 -15 -15 -15 -14
-13 -13 -13 -13 -12 -13 -13 -13 -13 -13 -13 -13 -13 -13 -13 -13 -13 -13 -13 -13 -13 -13 -12 -12 -12 -12 -12 -12 -11 -12 -12 -12 -12 -12 -12 -12 -12 -12 -12 -12 -12 -12 -12 -13 -13 -13 -13 -12 -12 -12 -13 -13 -13 -13 -14 -14 -14 -14 -14 -14 -15 -15 -14
-13 -13 -13 -13 -12 -13 -13 -13 -13 -13 -13 -13 -13 -13 -13 -13 -13 -13 -13 -14 -13 -13 -13 -12 -12 -12 -12 -12 -11 -12 -12 -12 -12 -12 -12 -12 -12 -12 -12 -12 -12 -12 -12 -13 -13 -13 -13 -13 -12 -12 -13 -13 -13 -13 -14 -14 -14 -14 -14 -14 -15 -14 -14
-13 -13 -12 -13 -13 -13 -13 -13 -13 -13 -13 -13 -13 -13 -13 -13 -13 -13 -13 -14 -13 -13 -13 -13 -12 -12 -12 -12 -12 -12 -12 -12 -12 -12 -12 -12 -12 -12 -12 -12 -12 -12 -12 -13 -13 -13 -13 -13 -13 -13 -13 -13 -13 -13 -14 -14 -14 -14 -14 -14 -15 -14 -14
-13 -13 -12 -12 -13 -13 -13 -13 -13 -13 -13 -13 -13 -13 -13 -13 -13 -13 -14 -14 -14 -13 -13 -13 -13 -13 -12 -12 -12 -12 -12 -12 -12 -12 -12 -12 -12 -12 -12 -12 -12 -12 -12 -12 -13 -13 -13 -13 -13 -13 -13 -13 -13 -14 -14 -14 -14 -14 -14 -14 -14 -14 -14
-13 -13 -12 -12 -13 -13 -13 -13 -13 -13 -13 -13 -13 -13 -13 -13 -13 -13 -14 -14 -14 -13 -13 -13 -13 -13 -13 -12 -12 -12 -12 -12 -12 -12 -12 -12 -12 -12 -12 -12 -12 -12 -12 -12 -12 -13 -13 -13 -13 -13 -13 -13 -14 -14 -14 -14 -14 -14 -14 -14 -14 -14 -14
-13 -12 -12 -12 -13 -13 -13 -13 -13 -13 -13 -13 -14 -14 -14 -14 -14 -14 -14 -14 -14 -14 -14 -13 -13 -13 -13 -13 -13 -13 -13 -13 -13 -12 -12 -12 -12 -12 -12 -12 -12 -12 -12 -12 -12 -13 -13 -13 -13 -13 -13 -13 -14 -14 -14 -14 -14 -14 -14 -14 -14 -14 -14
-13 -12 -12 -13 -13 -13 -13 -13 -13 -13 -13 -14 -14 -14 -14 -14 -14 -14 -14 -14 -14 -14 -14 -14 -14 -14 -14 -14 -14 -13 -13 -13 -13 -13 -12 -12 -12 -12 -12 -12 -12 -12 -12 -12 -13 -13 -13 -13 -13 -13 -13 -13 -14 -14 -14 -14 -14 -14 -14 -14 -14 -14 -15
-12 -12 -12 -12 -13 -13 -13 -13 -13 -13 -13 -13 -14 -14 -14 -14 -14 -15 -14 -14 -14 -14 -14 -14 -14 -14 -14 -14 -14 -14 -14 -13 -13 -13 -13 -12 -12 -12 -12 -12 -12 -12 -12 -12 -13 -13 -13 -13 -13 -13 -13 -13 -14 -14 -14 -14 -14 -15 -14 -14 -14 -15 -15
-12 -12 -12 -12 -13 -13 -13 -13 -13 -13 -13 -13 -13 -14 -14 -14 -15 -15 -14 -14 -14 -14 -14 -14 -14 -14 -14 -14 -14 -14 -14 -14 -14 -13 -13 -13 -13 -12 -12 -13 -12 -12 -12 -13 -13 -13 -13 -13 -13 -13 -13 -13 -14 -14 -14 -14 -14 -15 -14 -14 -15 -15 -15
-12 -12 -12 -12 -12 -13 -13 -13 -14 -13 -13 -13 -13 -14 -14 -14 -15 -15 -14 -14 -14 -14 -14 -14 -14 -14 -15 -14 -14 -14 -14 -14 -14 -13 -13 -13 -13 -13 -13 -13 -13 -13 -13 -13 -13 -13 -13 -13 -13 -13 -13 -14 -14 -14 -14 -14 -15 -15 -15 -14 -15 -15 -15
-12 -12 -12 -12 -12 -12 -13 -13 -14 -13 -13 -13 -13 -13 -14 -14 -15 -15 -15 -14 -14 -14 -14 -14 -14 -14 -15 -15 -14 -14 -14 -14 -14 -14 -14 -13 -13 -13 -13 -13 -13 -13 -13 -13 -13 -13 -13 -13 -13 -13 -14 -14 -14 -14 -14 -14 -15 -15 -15 -14 -15 -15 -15
-12 -12 -12 -12 -12 -12 -12 -13 -13 -13 -13 -13 -13 -13 -14 -14 -15 -15 -15 -14 -14 -14 -15 -14 -14 -14 -15 -15 -15 -15 -15 -15 -14 -14 -14 -14 -13 -13 -13 -13 -13 -13 -13 -13 -13 -13 -13 -13 -13 -14 -14 -14 -14 -14 -14 -14 -15 -15 -15 -14 -15 -15 -15
-12 -11 -12 -12 -12 -12 -12 -12 -13 -13 -13 -13 -13 -14 -14 -14 -14 -15 -14 -14 -14 -15 -15 -15 -14 -14 -15 -15 -15 -15 -15 -15 -15 -14 -14 -14 -13 -13 -13 -13 -13 -13 -13 -13 -13 -13 -13 -13 -13 -14 -14 -14 -14 -14 -14 -14 -15 -15 -15 -15 -15 -15 -15
-12 -11 -12 -12 -12 -12 -12 -12 -12 -13 -13 -13 -14 -14 -14 -14 -14 -14 -14 -14 -14 -14 -15 -15 -14 -14 -15 -15 -15 -15 -15 -15 -15 -14 -14 -14 -14 -13 -13 -13 -13 -13 -13 -13 -13 -13 -13 -13 -13 -13 -14 -14 -14 -14 -14 -14 -15 -15 -15 -15 -15 -15 -15
-12 -11 -11 -11 -12 -12 -12 -12 -12 -12 -12 -13 -13 -13 -13 -13 -14 -14 -14 -14 -14 -14 -15 -15 -14 -14 -14 -15 -15 -15 -15 -15 -15 -15 -14 -14 -14 -14 -14 -13 -13 -13 -13 -13 -13 -13 -13 -13 -13 -13 -14 -14 -14 -14 -14 -14 -14 -15 -15 -15 -15 -15 -15
-13 -12 -11 -11 -12 -12 -11 -11 -11 -11 -12 -12 -13 -13 -13 -13 -13 -13 -13 -13 -13 -14 -15 -15 -14 -14 -14 -14 -14 -15 -15 -15 -15 -15 -15 -14 -14 -14 -14 -14 -13 -13 -13 -13 -13 -13 -13 -13 -13 -13 -14 -14 -14 -14 -14 -14 -14 -15 -15 -15 -15 -15 -15
-13 -13 -13 -12 -12 -12 -12 -12 -12 -12 -11 -12 -13 -13 -13 -13 -13 -13 -13 -13 -13 -14 -14 -14 -14 -14 -14 -14 -14 -14 -15 -15 -15 -15 -15 -14 -14 -14 -14 -14 -14 -14 -13 -13 -13 -13 -13 -13 -13 -14 -14 -14 -14 -14 -14 -14 -14 -15 -15 -15 -15 -15 -15
-13 -13 -14 -13 -13 -13 -13 -13 -13 -13 -13 -13 -13 -13 -13 -13 -13 -13 -13 -13 -13 -14 -14 -14 -14 -14 -14 -14 -14 -14 -15 -15 -15 -15 -15 -14 -14 -14 -14 -14 -14 -14 -14 -13 -13 -13 -13 -13 -13 -14 -14 -14 -14 -14 -14 -14 -14 -15 -15 -15 -15 -15 -15
-13 -14 -14 -14 -13 -13 -13 -13 -13 -13 -13 -14 -13 -13 -13 -13 -13 -13 -12 -12 -13 -13 -13 -13 -13 -14 -14 -14 -14 -14 -15 -15 -15 -15 -15 -14 -14 -14 -14 -14 -14 -14 -14 -14 -13 -13 -13 -13 -13 -14 -14 -14 -14 -14 -14 -14 -14 -15 -15 -15 -15 -15 -15
-14 -14 -14 -14 -14 -14 -13 -13 -13 -13 -13 -14 -14 -13 -13 -13 -13 -13 -12 -12 -12 -13 -13 -13 -13 -14 -14 -14 -14 -15 -15 -15 -15 -15 -15 -14 -14 -14 -14 -14 -14 -14 -14 -14 -13 -13 -13 -13 -13 -14 -14 -14 -14 -14 -14 -14 -14 -15 -15 -15 -15 -15 -15
-14 -15 -14 -14 -14 -14 -14 -13 -13 -13 -13 -13 -13 -13 -13 -13 -13 -13 -13 -12 -12 -13 -13 -13 -14 -14 -14 -14 -14 -15 -15 -15 -15 -15 -15 -14 -14 -14 -14 -14 -14 -14 -14 -14 -14 -14 -13 -13 -13 -14 -14 -14 -14 -14 -14 -14 -14 -15 -15 -15 -15 -15 -15
-14 -15 -14 -14 -14 -13 -13 -13 -13 -13 -13 -13 -13 -13 -13 -13 -13 -13 -13 -13 -12 -12 -13 -13 -14 -14 -14 -14 -15 -15 -15 -15 -15 -15 -15 -14 -14 -14 -14 -14 -14 -14 -14 -14 -14 -14 -14 -13 -13 -14 -14 -14 -14 -15 -15 -15 -15 -15 -15 -15 -15 -15 -15
-15 -14 -14 -14 -14 -13 -13 -13 -13 -13 -13 -13 -13 -12 -12 -12 -12 -12 -12 -12 -12 -12 -12 -13 -14 -14 -14 -15 -15 -15 -15 -15 -15 -15 -15 -14 -14 -14 -14 -14 -14 -14 -14 -14 -14 -14 -14 -13 -13 -14 -14 -14 -15 -15 -15 -15 -15 -15 -15 -15 -15 -15 -15
-15 -15 -14 -14 -14 -13 -13 -13 -13 -13 -13 -13 -13 -12 -12 -12 -12 -12 -12 -12 -12 -12 -13 -13 -13 -14 -14 -15 -15 -15 -15 -15 -15 -15 -15 -15 -14 -14 -14 -14 -14 -14 -14 -14 -14 -14 -14 -14 -14 -14 -14 -14 -14 -15 -15 -15 -15 -15 -15 -15 -15 -15 -15
Height
5824 5826 5829 5832 5833 5835 5837 5838 5838 5839 5840 5842 5845 5847 5848 5850 5851 5851 5852 5853 5853 5853 5853 5852 5852 5851 5851 5850 5850 5849 5848 5847 5847 5845 5844 5843 5842 5841 5840 5839 5838 5837 5837 5836 5836 5835 5834 5833 5832 5832 5832 5831 5829 5828 5827 5826 5826 5825 5824 5823 5823 5822 5820
5820 5822 5825 5828 5830 5832 5834 5835 5836 5836 5837 5839 5842 5844 5846 5848 5849 5850 5850 5851 5852 5852 5851 5850 5850 5850 5849 5848 5848 5847 5846 5846 5845 5844 5843 5841 5840 5839 5839 5838 5837 5836 5836 5835 5834 5833 5832 5831 5831 5830 5830 5829 5828 5826 5825 5825 5824 5823 5822 5821 5821 5820 5819
5816 5819 5822 5825 5828 5830 5832 5833 5834 5834 5835 5836 5839 5842 5845 5846 5847 5848 5849 5850 5850 5850 5849 5849 5848 5848 5847 5846 5846 5845 5844 5844 5843 5842 5841 5840 5838 5837 5837 5836 5835 5835 5834 5833 5832 5831 5830 5830 5829 5828 5828 5827 5826 5825 5823 5823 5823 5822 5821 5819 5818 5818 5817
5812 5815 5818 5822 5825 5827 5829 5831 5831 5832 5833 5834 5836 5839 5842 5844 5845 5846 5847 5848 5848 5848 5847 5847 5847 5846 5845 5844 5844 5843 5843 5841 5840 5840 5839 5838 5836 5835 5835 5834 5834 5834 5833 5832 5831 5830 5829 5828 5827 5826 5826 5825 5824 5823 5822 5821 5821 5820 5819 5818 5816 5815 5815
5809 5811 5815 5818 5821 5824 5826 5828 5829 5829 5831 5832 5834 5837 5839 5841 5843 5844 5845 5846 5846 5846 5845 5845 5845 5844 5843 5843 5842 5842 5841 5839 5838 5837 5836 5835 5834 5834 5833 5832 5832 5832 5832 5831 5830 5829 5827 5826 5824 5824 5823 5823 5822 5822 5820 5819 5819 5818 5818 5816 5814 5813 5812
5805 5808 5812 5815 5818 5821 5823 5825 5826 5828 5829 5831 5833 5835 5837 5839 5841 5843 5844 5844 5844 5844 5844 5843 5843 5842 5842 5841 5841 5840 5838 5837 5836 5835 5834 5833 5833 5832 5831 5831 5830 5830 5830 5830 5829 5827 5826 5824 5822 5821 5821 5820 5820 5819 5819 5818 5817 5816 5815 5814 5813 5812 5810
5801 5804 5808 5812 5815 5817 5820 5822 5824 5826 5827 5829 5831 5833 5835 5837 5839 5841 5842 5842 5842 5842 5842 5841 5841 5840 5840 5840 5839 5838 5836 5835 5834 5833 5832 5831 5831 5830 5830 5829 5828 5828 5828 5827 5827 5826 5825 5823 5821 5820 5819 5818 5817 5817 5817 5816 5815 5814 5813 5812 5811 5810 5809
5797 5801 5805 5808 5811 5814 5817 5820 5821 5823 5825 5827 5829 5830 5832 5835 5837 5838 5840 5840 5840 5840 5840 5840 5839 5839 5838 5838 5837 5836 5834 5833 5832 5831 5830 5829 5829 5828 5827 5827 5826 5826 5826 5825 5824 5824 5823 5822 5820 5818 5817 5815 5814 5814 5814 5814 5813 5812 5811 5810 5809 5808 5806
5794 5797 5800 5804 5807 5811 5815 5817 5819 5821 5822 5824 5826 5828 5830 5833 5835 5836 5837 5838 5838 5838 5838 5838 5838 5837 5836 5835 5834 5833 5832 5831 5830 5829 5829 5828 5827 5826 5825 5825 5824 5824 5824 5823 5822 5821 5821 5819 5818 5817 5815 5814 5813 5812 5811 5811 5810 5809 5809 5808 5807 5806 5804
5790 5793 5797 5801 5804 5808 5811 5814 5816 5818 5819 5821 5823 5825 5827 5830 5832 5833 5834 5835 5835 5836 5835 5835 5835 5835 5834 5833 5832 5831 5830 5829 5828 5827 5827 5826 5825 5824 5824 5823 5822 5822 5821 5821 5820 5819 5818 5817 5816 5815 5814 5812 5811 5810 5809 5808 5807 5806 5806 5805 5804 5803 5802
5787 5790 5794 5797 5800 5803 5807 5810 5813 5815 5817 5818 5820 5822 5824 5827 5829 5831 5832 5832 5833 5833 5833 5833 5833 5833 5832 5831 5830 5829 5828 5827 5826 5825 5825 5824 5824 5823 5822 5821 5820 5820 5819 5819 5818 5817 5816 5815 5814 5813 5812 5811 5810 5808 5808 5807 5805 5804 5804 5803 5802 5801 5800
5783 5786 5790 5792 5795 5799 5802 5806 5809 5812 5814 5815 5816 5819 5821 5824 5826 5828 5829 5829 5830 5831 5831 5831 5830 5830 5829 5828 5827 5827 5826 5825 5824 5823 5822 5822 5822 5821 5820 5819 5819 5818 5817 5817 5816 5815 5814 5813 5812 5811 5810 5809 5808 5807 5807 5806 5804 5803 5802 5802 5801 5800 5799
5778 5781 5785 5787 5791 5795 5799 5802 5805 5808 5810 5811 5813 5815 5818 5820 5823 5825 5826 5826 5827 5828 5828 5828 5828 5827 5826 5825 5825 5824 5824 5823 5822 5821 5820 5820 5819 5819 5818 5818 5817 5816 5815 5814 5814 5813 5812 5811 5810 5809 5808 5807 5806 5805 5805 5804 5803 5802 5801 5800 5800 5798 5797
5774 5777 5780 5783 5786 5790 5794 5797 5800 5803 5805 5807 5809 5812 5814 5817 5820 5822 5822 5823 5824 5825 5825 5826 5826 5825 5824 5823 5822 5822 5821 5821 5820 5819 5818 5817 5817 5817 5816 5815 5815 5814 5813 5812 5812 5811 5810 5809 5807 5807 5806 5805 5804 5803 5803 5803 5802 5801 5800 5799 5798 5797 5796
5769 5772 5776 5779 5783 5786 5789 5793 5795 5798 5801 5803 5806 5808 5811 5814 5816 5818 5819 5820 5821 5822 5822 5823 5823 5822 5821 5821 5820 5820 5819 5818 5818 5817 5815 5815 5814 5814 5814 5813 5812 5812 5811 5810 5809 5808 5807 5806 5805 5804 5803 5803 5802 5801 5801 5801 5800 5800 5799 5798 5797 5796 5795
5763 5767 5771 5775 5778 5782 5785 5788 5791 5793 5797 5799 5802 5805 5807 5810 5813 5815 5816 5817 5818 5819 5820 5820 5820 5819 5819 5818 5818 5817 5817 5816 5816 5814 5813 5812 5812 5812 5812 5811 5810 5809 5808 5807 5807 5806 5805 5804 5803 5802 5801 5800 5799 5799 5799 5799 5798 5798 5797 5796 5795 5794 5793
5758 5762 5766 5770 5774 5778 5781 5784 5786 5789 5792 5795 5798 5801 5803 5806 5809 5811 5813 5815 5816 5817 5817 5817 5817 5817 5816 5816 5815 5815 5815 5814 5814 5812 5811 5810 5809 5809 5809 5808 5807 5806 5806 5805 5804 5803 5802 5801 5801 5800 5799 5797 5797 5796 5796 5796 5796 5796 5795 5794 5793 5791 5790
5753 5757 5762 5766 5770 5773 5776 5779 5781 5784 5787 5790 5793 5796 5799 5801 5804 5808 5810 5812 5813 5814 5814 5815 5815 5814 5813 5813 5813 5812 5812 5812 5811 5810 5809 5808 5807 5806 5806 5805 5805 5804 5803 5803 5802 5801 5800 5799 5798 5797 5796 5795 5794 5794 5794 5793 5793 5792 5792 5791 5790 5789 5788
5748 5753 5757 5761 5766 5769 5771 5774 5777 5779 5782 5785 5788 5791 5794 5797 5800 5804 5807 5809 5810 5811 5812 5812 5813 5812 5811 5810 5810 5810 5809 5809 5809 5808 5807 5806 5804 5804 5803 5803 5802 5801 5801 5801 5800 5799 5798 5797 5796 5795 5794 5793 5792 5792 5791 5791 5790 5789 5789 5789 5787 5786 5785
5744 5748 5752 5757 5761 5764 5766 5769 5772 5774 5777 5780 5783 5786 5790 5793 5797 5801 5804 5806 5807 5808 5809 5810 5810 5810 5809 5809 5808 5808 5807 5807 5807 5806 5805 5803 5802 5802 5801 5801 5800 5799 5799 5798 5797 5797 5796 5795 5794 5793 5792 5791 5790 5790 5789 5788 5788 5787 5786 5785 5784 5783 5781
5739 5743 5747 5751 5755 5758 5761 5763 5766 5769 5772 5775 5778 5782 5786 5790 5793 5796 5800 5802 5804 5805 5806 5807 5808 5808 5807 5807 5807 5806 5805 5805 5804 5804 5802 5801 5800 5799 5799 5798 5798 5797 5796 5795 5795 5794 5793 5792 5791 5791 5789 5788 5788 5787 5787 5786 5786 5785 5784 5783 5781 5780 5778
5733 5737 5741 5744 5748 5751 5755 5758 5761 5764 5767 5770 5773 5777 5781 5785 5788 5791 5795 5798 5800 5801 5803 5804 5805 5805 5805 5805 5805 5804 5803 5803 5802 5801 5800 5799 5798 5797 5796 5796 5795 5794 5794 5793 5792 5791 5790 5790 5789 5788 5787 5786 5785 5785 5785 5784 5783 5782 5781 5780 5779 5778 5776
5725 5730 5733 5737 5741 5745 5749 5752 5755 5759 5762 5764 5766 5770 5774 5778 5782 5785 5789 5793 5795 5797 5799 5801 5802 5802 5802 5802 5802 5802 5801 5800 5800 5799 5798 5797 5796 5795 5794 5793 5793 5792 5791 5790 5789 5788 5788 5787 5787 5786 5785 5784 5783 5782 5782 5781 5780 5779 5779 5778 5777 5776 5774
5717 5722 5727 5731 5735 5738 5743 5747 5750 5754 5757 5759 5760 5763 5767 5771 5775 5779 5783 5787 5790 5792 5795 5797 5798 5798 5799 5799 5800 5799 5799 5798 5797 5796 5795 5794 5793 5792 5791 5791 5790 5789 5788 5787 5786 5786 5785 5785 5784 5783 5782 5781 5780 5780 5779 5779 5778 5777 5777 5776 5775 5774 5772
5710 5715 5720 5724 5728 5732 5737 5742 5746 5750 5753 5756 5757 5758 5760 5764 5768 5772 5776 5780 5784 5788 5791 5792 5793 5794 5795 5796 5796 5796 5796 5795 5794 5793 5792 5791 5790 5789 5788 5788 5787 5787 5786 5785 5784 5783 5782 5782 5781 5780 5780 5779 5778 5777 5777 5776 5776 5775 5775 5774 5773 5771 5770
5705 5709 5714 5718 5722 5727 5732 5737 5741 5744 5747 5751 5753 5754 5756 5758 5761 5765 5770 5774 5779 5782 5786 5788 5789 5790 5791 5792 5792 5793 5792 5792 5791 5790 5789 5788 5787 5786 5785 5785 5784 5784 5783 5782 5781 5780 5779 5779 5778 5778 5777 5776 5776 5775 5775 5774 5773 5773 5772 5771 5770 5769 5768
5702 5704 5708 5713 5718 5721 5726 5731 5735 5737 5740 5743 5746 5750 5752 5754 5756 5760 5764 5768 5772 5776 5780 5782 5784 5786 5787 5788 5788 5789 5789 5788 5787 5787 5786 5785 5784 5783 5782 5782 5781 5781 5780 5779 5778 5777 5777 5776 5776 5775 5775 5774 5773 5773 5772 5771 5771 5770 5770 5769 5767 5766 5765
5696 5701 5704 5707 5711 5716 5720 5724 5728 5731 5734 5736 5739 5743 5747 5750 5751 5754 5758 5762 5765 5770 5774 5777 5779 5781 5783 5783 5784 5785 5785 5784 5784 5783 5782 5781 5781 5780 5779 5779 5778 5778 5777 5776 5775 5775 5774 5774 5773 5773 5772 5771 5770 5770 5769 5768 5767 5767 5766 5765 5764 5763 5762
5686 5693 5698 5701 5705 5709 5714 5717 5720 5723 5727 5729 5731 5734 5739 5743 5745 5749 5753 5757 5760 5764 5768 5771 5774 5776 5778 5778 5779 5780 5780 5780 5780 5779 5779 5778 5777 5777 5776 5776 5775 5775 5774 5774 5773 5772 5772 5771 5770 5770 5769 5768 5767 5767 5766 5765 5764 5764 5763 5762 5761 5760 5759
5679 5683 5689 5695 5700 5705 5709 5711 5713 5717 5721 5722 5723 5727 5732 5736 5741 5745 5750 5752 5756 5760 5763 5765 5768 5770 5771 5773 5774 5775 5776 5776 5775 5775 5775 5775 5774 5773 5773 5773 5772 5772 5771 5771 5770 5770 5769 5768 5767 5766 5766 5765 5765 5764 5763 5762 5761 5761 5760 5759 5758 5757 5756
5675 5677 5681 5687 5694 5698 5702 5704 5707 5712 5716 5716 5717 5722 5727 5730 5734 5740 5744 5747 5752 5756 5758 5760 5762 5763 5765 5767 5768 5769 5771 5771 5771 5771 5771 5771 5770 5770 5770 5769 5769 5769 5768 5767 5767 5767 5766 5766 5764 5763 5763 5762 5762 5761 5760 5759 5758 5758 5757 5756 5755 5754 5753
5668 5672 5675 5681 5686 5690 5693 5697 5701 5706 5710 5712 5714 5718 5722 5724 5727 5732 5736 5742 5747 5751 5754 5755 5756 5757 5759 5761 5763 5764 5765 5765 5766 5766 5766 5766 5766 5766 5766 5766 5766 5765 5764 5764 5764 5763 5763 5762 5761 5760 5760 5759 5758 5757 5756 5756 5755 5754 5754 5753 5752 5751 5750
5662 5666 5670 5676 5681 5685 5688 5692 5695 5699 5704 5707 5710 5713 5716 5718 5721 5725 5729 5734 5740 5745 5748 5750 5751 5752 5753 5755 5757 5758 5759 5760 5761 5762 5762 5762 5762 5763 5763 5762 5762 5761 5761 5760 5760 5760 5759 5759 5758 5757 5757 5756 5755 5754 5753 5753 5752 5751 5750 5750 5749 5748 5747
5658 5662 5666 5670 5675 5680 5685 5688 5691 5694 5698 5701 5705 5708 5711 5714 5716 5719 5722 5724 5729 5736 5741 5744 5746 5747 5748 5750 5751 5752 5754 5755 5756 5757 5757 5757 5758 5758 5758 5758 5757 5757 5757 5757 5756 5756 5756 5755 5755 5754 5753 5752 5751 5751 5750 5749 5749 5748 5747 5746 5745 5745 5744
5654 5659 5662 5666 5670 5675 5680 5683 5687 5690 5693 5696 5699 5703 5706 5711 5713 5715 5717 5719 5722 5728 5733 5737 5740 5741 5742 5744 5745 5747 5748 5750 5751 5752 5752 5753 5754 5754 5754 5753 5753 5753 5752 5752 5752 5752 5751 5751 5751 5751 5750 5749 5748 5748 5747 5746 5746 5745 5744 5743 5742 5741 5740
5651 5655 5660 5664 5668 5672 5675 5679 5682 5685 5688 5692 5695 5698 5702 5706 5707 5708 5710 5714 5718 5724 5728 5731 5733 5735 5737 5738 5740 5742 5743 5745 5745 5746 5748 5749 5749 5749 5749 5749 5749 5748 5748 5748 5748 5747 5747 5747 5747 5746 5746 5745 5745 5744 5744 5743 5742 5741 5740 5739 5738 5737 5736
5646 5651 5656 5660 5664 5668 5671 5673 5677 5680 5683 5687 5690 5693 5697 5699 5701 5703 5705 5708 5712 5718 5722 5724 5726 5728 5730 5733 5735 5736 5738 5740 5740 5741 5743 5744 5744 5744 5744 5744 5744 5743 5743 5743 5743 5742 5743 5743 5743 5742 5741 5741 5741 5741 5740 5739 5738 5737 5737 5735 5734 5733 5733
Wind_Speed
38 37 35 31 30 27 24 23 26 30 30 29 29 26 21 18 15 12 10 9 8 9 11 13 13 12 10 10 9 9 10 10 9 9 10 10 11 12 13 14 14 15 17 18 19 20 21 21 20 18 16 15 16 16 14 13 13 13 13 13 13 12 12
41 40 38 34 31 28 25 23 23 26 26 26 29 27 21 19 17 14 13 11 9 9 11 12 13 13 11 11 10 10 10 10 9 9 9 10 11 12 12 13 14 15 16 18 19 21 21 21 20 19 17 15 15 16 15 13 13 14 14 14 13 12 12
44 42 40 37 33 29 27 23 20 21 22 21 26 27 21 19 18 16 15 12 10 9 11 12 14 14 13 12 11 11 11 10 10 9 9 10 11 12 13 13 13 14 15 17 19 20 21 21 20 19 17 15 14 15 15 13 13 14 14 15 15 13 13
45 44 42 39 35 31 28 23 19 20 20 19 25 28 22 20 20 19 17 14 11 10 11 12 13 15 15 14 12 11 11 11 11 10 10 11 11 12 13 13 13 13 15 16 18 20 21 21 21 20 18 16 14 13 14 14 14 14 14 15 15 14 14
46 45 44 41 37 33 30 25 20 19 19 18 24 27 24 23 22 20 20 17 14 12 11 12 13 15 15 15 13 12 11 12 12 11 12 12 12 13 13 13 12 12 13 16 18 19 20 21 21 20 18 17 14 13 14 15 15 15 14 14 15 15 14
47 47 45 43 40 35 31 27 21 19 19 19 22 27 27 26 23 22 23 21 17 14 13 12 13 15 16 15 14 12 12 12 12 13 13 13 13 13 13 13 12 11 13 15 17 19 19 20 22 21 19 17 15 13 14 15 15 15 14 14 15 14 13
49 48 46 44 42 38 33 28 23 21 21 21 22 26 28 27 24 23 24 23 20 17 14 13 13 15 16 16 15 13 12 12 13 13 14 14 14 14 14 13 12 12 13 15 17 18 19 19 20 21 20 18 17 16 15 14 15 16 15 15 14 14 14
51 49 48 45 44 41 36 31 26 24 24 24 25 27 27 26 24 23 23 24 22 19 17 14 13 15 16 16 15 14 13 12 13 13 14 14 15 15 14 14 14 13 14 15 17 18 19 19 19 19 19 19 19 19 17 15 14 14 15 15 15 15 15
50 50 49 47 45 43 39 34 29 27 28 28 28 28 27 26 25 24 22 23 23 21 19 16 15 15 16 16 16 15 13 13 12 13 13 14 14 15 15 15 15 14 15 16 17 18 19 20 19 18 18 18 19 19 18 17 16 15 15 15 15 15 16
46 49 50 48 47 44 43 39 33 32 32 31 30 30 29 27 26 24 23 23 23 22 21 18 16 15 16 16 16 15 14 13 12 12 13 13 14 14 14 15 15 15 16 16 17 18 19 19 19 18 18 18 18 19 18 18 18 17 16 17 17 17 18
44 47 49 50 50 47 45 42 37 34 34 33 32 32 31 29 27 25 25 24 23 23 22 20 17 16 15 15 15 16 15 14 12 12 12 13 13 14 14 15 16 16 16 16 17 18 19 19 19 18 18 17 18 18 17 17 18 17 17 18 19 19 19
43 44 46 49 51 50 48 43 38 35 35 36 35 33 32 30 28 27 26 26 25 24 24 21 19 16 15 15 15 16 16 15 13 12 13 13 13 13 14 15 16 16 17 17 18 18 19 19 19 19 18 18 18 18 16 16 17 17 17 18 20 20 20
43 43 43 45 48 50 48 43 38 37 38 39 38 36 34 32 30 28 28 27 26 26 25 23 20 17 15 15 15 16 16 16 15 14 13 13 13 14 15 16 16 17 17 18 18 18 18 19 20 20 19 18 18 17 16 15 16 16 17 18 20 21 21
46 45 44 43 44 49 48 42 39 40 42 43 42 39 36 34 32 30 30 29 28 27 26 24 21 18 15 15 15 16 16 16 15 15 14 14 14 14 15 16 17 17 17 17 17 18 18 19 20 20 20 19 18 17 16 14 14 15 17 19 20 21 21
49 47 46 43 42 46 47 43 41 42 44 46 44 41 39 37 34 32 32 31 30 28 27 25 22 19 16 15 16 16 16 16 15 15 15 15 15 15 15 16 17 18 18 18 18 18 18 18 20 21 21 20 19 17 16 14 14 15 17 19 21 21 21
51 50 48 45 42 42 44 44 43 44 46 48 46 43 41 39 36 34 33 33 31 29 28 26 23 20 17 16 16 16 16 16 15 15 15 16 15 15 15 16 17 18 19 19 18 18 18 18 19 21 22 21 20 18 16 15 15 16 17 19 21 21 21
52 52 50 47 44 43 43 43 44 46 48 49 47 45 43 41 39 37 35 34 33 30 29 26 24 21 18 17 17 17 16 16 15 15 16 16 16 16 16 17 18 19 19 19 18 18 18 18 19 21 22 21 20 18 17 17 17 17 19 20 21 22 22
53 53 51 48 45 44 44 42 43 47 49 50 49 47 45 44 42 39 36 35 34 32 29 26 24 22 19 17 17 17 16 16 15 15 16 17 17 17 17 17 18 19 19 19 19 18 18 18 19 20 22 21 20 19 18 19 19 19 20 21 21 22 22
50 51 51 48 45 44 44 43 42 46 50 52 50 48 47 46 44 40 37 36 35 32 29 26 24 21 19 17 16 16 16 16 15 15 16 17 17 17 18 18 19 20 20 19 19 19 18 18 19 20 22 21 20 19 19 20 21 21 21 21 22 22 22
49 49 49 47 46 44 44 43 42 45 51 53 51 49 48 46 45 42 39 37 36 33 30 26 23 21 18 17 16 16 16 16 15 15 16 16 17 18 19 19 19 20 20 19 19 19 19 18 19 21 22 21 20 19 19 20 21 22 22 22 22 23 23
51 50 49 48 48 47 46 44 42 44 51 53 50 49 49 47 46 44 41 39 37 35 31 27 23 20 18 16 16 16 17 17 15 14 15 16 17 18 19 19 20 20 21 20 20 20 19 19 19 21 22 22 22 20 19 20 21 22 22 22 23 23 23
56 54 53 52 51 50 48 46 43 44 50 53 50 50 51 48 47 47 43 40 39 36 32 28 23 20 19 17 16 16 17 17 16 14 16 16 17 18 19 19 20 21 21 21 20 20 20 19 19 21 22 23 22 21 20 20 21 22 22 22 22 22 23
59 57 57 55 54 53 51 48 45 44 49 53 52 51 53 52 49 48 46 42 41 38 33 29 24 21 20 19 17 17 18 18 16 15 16 16 17 18 19 20 21 21 22 22 21 21 21 20 20 21 22 23 23 22 21 21 22 22 22 22 22 22 22
61 60 59 57 56 55 53 50 47 45 48 52 52 52 55 54 52 50 48 44 43 39 34 30 26 23 22 21 19 18 19 19 18 16 16 16 17 18 20 20 21 22 22 22 22 21 21 21 20 21 22 23 23 23 22 22 22 22 22 21 21 21 22
64 62 60 59 59 57 53 50 48 46 46 49 52 53 55 56 55 53 50 47 44 40 35 31 28 25 23 23 22 20 20 20 19 17 16 17 18 19 20 21 22 22 23 23 22 22 22 21 21 21 22 22 23 23 22 22 22 22 21 21 21 21 22
64 63 61 59 59 57 53 51 50 48 47 48 50 52 55 58 58 55 51 48 44 40 37 33 30 26 25 24 24 22 21 21 20 18 17 18 18 19 20 21 22 23 23 23 23 22 22 22 22 21 22 22 23 23 23 23 22 21 21 21 21 21 22
63 63 62 59 58 56 54 52 52 53 52 52 52 51 55 61 62 58 53 49 45 41 38 35 31 28 27 27 26 24 23 22 21 20 18 19 19 19 20 22 23 24 24 24 24 23 22 22 22 22 22 22 22 23 23 23 22 21 21 21 21 21 23
60 61 62 61 58 57 55 55 56 56 56 56 56 53 54 62 66 62 55 51 48 43 39 36 33 29 29 30 29 26 24 23 22 21 20 20 19 19 20 22 24 25 25 24 24 23 23 23 23 22 22 22 22 23 23 23 22 21 20 21 21 22 23
60 61 63 62 60 57 56 57 58 59 58 59 59 55 53 61 68 65 58 54 49 44 40 37 34 30 31 33 32 28 25 24 23 22 21 21 20 20 21 22 24 25 25 25 25 24 24 24 23 23 23 22 22 23 23 23 22 20 20 21 21 22 24
63 62 61 61 59 57 58 58 59 60 58 59 60 55 51 57 64 63 59 56 51 44 41 38 34 32 33 34 33 30 27 25 25 23 22 22 21 21 22 23 24 26 26 26 26 26 25 25 24 24 23 23 22 23 23 23 21 20 20 20 21 22 24
63 62 60 59 59 58 59 59 58 57 56 57 59 54 49 52 58 59 58 57 53 47 43 39 35 35 36 35 34 32 29 27 26 24 23 23 23 22 23 24 25 26 27 28 28 28 27 26 25 24 23 23 22 22 22 22 21 19 19 20 21 22 24
65 63 61 60 59 58 60 60 58 56 55 55 57 54 49 50 54 56 56 57 55 51 45 40 37 37 37 36 35 33 30 28 27 25 25 25 24 23 23 24 26 27 28 29 30 29 29 27 26 25 23 23 23 22 22 21 20 19 20 20 22 23 24
66 65 62 60 57 56 56 57 57 57 55 54 54 54 52 50 53 56 56 55 55 52 46 41 38 37 36 36 35 33 31 29 28 27 27 27 25 24 24 25 27 28 29 30 31 31 30 29 27 25 23 23 24 23 21 20 20 20 20 21 22 23 25
64 63 61 59 57 55 53 53 54 56 55 52 52 54 54 52 53 56 57 57 58 54 47 42 40 38 36 36 35 34 32 30 29 28 28 27 25 24 24 26 28 29 30 31 32 32 32 30 28 25 24 24 24 23 21 21 21 21 21 22 22 23 25
62 61 61 60 59 57 55 54 53 54 54 53 52 52 51 49 49 52 56 58 58 55 47 42 41 39 36 36 36 34 31 30 30 30 29 27 25 25 26 28 29 30 31 32 32 33 33 32 29 26 25 25 24 24 23 22 22 21 22 23 23 24 25
61 60 59 59 58 57 56 56 54 54 53 53 52 50 48 45 41 44 52 56 57 56 47 40 39 39 36 36 35 34 32 31 31 31 29 27 26 26 28 29 30 31 33 33 33 34 34 33 31 28 27 26 25 25 24 24 23 23 23 23 23 24 26
59 58 57 58 57 56 56 56 55 54 54 52 51 49 50 47 40 38 45 53 56 56 45 35 35 37 36 36 36 34 32 31 32 32 30 28 28 28 29 30 32 33 34 34 35 35 34 34 32 30 28 26 25 26 26 26 25 24 23 24 24 25 26
Wind_Direction
228 232 234 231 230 232 231 232 235 236 238 230 218 217 227 235 244 254 262 279 308 330 342 346 342 336 331 327 322 318 314 314 316 318 317 312 311 310 309 312 315 315 315 315 313 313 312 312 314 315 314 310 306 300 292 288 290 295 295 290 284 282 285
228 231 234 232 232 235 232 231 237 240 244 237 220 215 223 234 241 248 256 269 296 323 335 343 341 333 328 326 324 321 317 318 322 324 320 313 310 310 310 311 313 314 313 313 313 312 312 312 314 316 314 307 300 294 289 289 291 295 295 291 287 287 287
227 231 233 233 232 235 235 233 239 245 249 240 220 214 222 233 238 243 253 264 286 314 329 336 338 333 327 326 326 325 322 323 327 328 323 317 313 313 312 311 312 312 312 313 313 312 312 313 314 316 314 304 295 289 288 289 291 292 292 290 289 289 289
228 231 233 233 231 233 235 235 239 247 251 239 217 212 220 231 235 240 249 262 279 301 319 329 333 332 328 327 327 326 324 325 329 330 326 321 317 315 312 311 311 312 312 312 312 312 312 312 312 314 313 304 293 287 286 287 288 289 287 286 286 288 293
230 232 233 232 232 232 234 234 234 241 250 240 219 212 218 228 232 237 246 259 276 291 308 320 328 330 328 327 326 327 326 328 330 329 326 323 319 314 309 309 310 310 310 310 312 313 313 313 312 313 311 304 296 287 285 285 287 287 284 281 283 288 298
231 232 233 233 232 232 234 234 229 232 242 240 226 220 222 227 231 238 245 256 271 284 295 308 320 326 327 326 325 327 329 330 332 329 326 323 318 312 308 307 308 309 309 310 312 314 314 312 311 312 310 305 298 288 283 285 286 286 281 277 279 286 297
231 230 231 234 234 232 233 233 228 225 231 234 231 229 229 230 234 241 246 254 265 277 284 295 310 318 323 324 324 328 331 333 333 331 327 323 317 312 309 308 309 309 309 310 312 313 313 312 311 311 311 308 302 293 285 283 283 284 282 280 281 288 297
228 227 229 233 235 235 233 232 230 225 226 230 232 234 235 235 238 243 248 254 261 270 276 282 296 309 317 321 323 327 330 332 333 331 328 325 319 313 310 309 309 310 310 310 312 313 313 312 312 311 312 309 304 299 293 288 283 280 281 282 285 292 301
229 230 231 232 235 237 235 234 234 229 226 227 231 236 238 238 239 243 250 254 258 264 270 274 283 299 312 317 320 324 327 330 331 330 328 325 320 314 310 310 309 310 311 310 312 314 314 315 315 313 312 308 302 298 295 293 290 285 284 286 290 297 304
230 232 232 232 234 237 237 236 236 234 230 228 230 236 240 240 240 243 249 252 254 259 264 269 276 290 305 313 317 320 323 327 328 327 325 323 320 315 310 309 309 310 310 311 312 314 315 317 316 314 312 306 299 295 295 294 293 293 293 294 296 300 305
231 230 230 231 233 234 235 237 237 236 234 232 232 235 239 241 241 242 247 248 250 255 259 265 272 283 299 308 313 315 317 322 326 324 322 321 320 316 311 309 308 310 310 311 312 314 316 318 317 314 311 305 298 293 292 292 291 292 293 294 296 299 303
230 228 228 229 231 231 232 234 235 235 237 237 235 234 238 240 240 241 244 246 248 252 257 262 267 277 293 303 309 312 313 316 320 322 319 318 318 315 312 309 309 310 311 311 313 315 317 318 318 316 312 306 299 294 291 287 287 289 290 290 292 295 301
228 227 225 226 229 230 230 231 234 236 240 240 236 234 236 238 239 240 241 244 246 250 255 259 262 271 286 299 305 307 309 312 315 318 317 315 315 313 311 309 308 309 310 312 315 317 319 319 319 318 314 308 302 296 292 286 283 287 288 288 289 293 301
227 227 226 225 226 228 228 229 233 237 240 239 236 235 236 236 237 238 240 242 244 248 254 257 259 265 279 293 300 303 304 307 310 314 315 313 312 312 310 309 308 307 308 310 314 317 318 319 319 318 315 310 304 297 293 289 284 284 286 287 289 294 303
224 225 227 227 226 224 225 228 232 235 238 238 235 234 235 235 235 236 238 240 242 247 252 256 259 263 273 286 294 298 299 301 306 309 311 312 312 311 309 308 307 307 307 309 312 313 315 317 318 317 316 312 306 300 297 292 287 286 286 288 292 298 306
221 223 226 227 224 221 223 228 232 233 236 237 234 233 235 234 234 234 235 237 241 245 250 255 258 261 269 280 288 293 293 295 300 304 306 309 311 311 309 307 307 307 310 312 313 313 313 315 316 316 316 314 309 304 301 297 294 293 293 294 297 303 309
220 221 224 225 223 221 223 229 233 232 233 234 232 234 236 234 233 233 232 235 239 244 248 253 256 260 267 275 282 288 289 289 293 298 303 306 309 310 309 308 307 309 313 316 316 315 314 315 316 316 316 315 312 307 302 300 300 300 300 301 303 306 312
221 221 223 223 223 223 225 229 233 232 230 229 230 233 235 233 232 232 230 232 237 241 246 250 254 258 264 271 278 283 284 286 288 293 299 303 307 310 310 310 308 308 312 315 316 315 314 314 315 315 316 316 312 308 304 303 304 304 304 305 306 309 313
219 221 221 221 221 223 226 229 232 231 227 225 229 232 232 231 232 231 229 230 234 238 242 246 250 256 262 268 275 280 281 282 283 289 296 301 305 308 308 309 309 308 310 312 313 313 313 314 314 314 316 316 313 309 306 305 304 304 306 307 309 312 316
218 220 221 220 219 222 226 229 230 229 225 224 227 230 230 231 232 232 228 229 233 236 239 242 246 253 260 267 274 278 280 280 280 285 292 298 304 306 306 308 309 309 309 311 313 314 314 313 313 314 315 316 315 311 306 304 303 304 306 309 313 316 318
220 221 221 221 219 220 224 227 228 226 223 224 227 229 230 230 232 233 230 229 232 235 236 239 243 251 258 266 274 279 280 280 280 282 288 296 302 305 305 308 309 310 310 311 313 314 315 313 311 313 315 316 316 312 307 304 303 305 309 313 317 319 318
223 222 222 222 221 221 223 226 227 224 221 222 224 227 230 229 230 233 232 229 231 234 235 237 240 248 257 264 272 278 280 281 282 281 284 292 300 305 307 308 309 310 310 312 313 314 314 313 311 312 315 317 316 314 310 307 306 308 312 316 318 318 315
222 223 223 223 221 221 223 225 226 224 220 219 220 223 228 228 228 231 232 229 231 232 233 235 238 244 255 261 268 275 280 282 284 283 283 288 296 304 308 308 308 309 311 312 313 313 313 312 311 311 314 316 317 316 314 311 309 310 314 317 318 316 313
222 222 224 224 222 221 223 224 226 225 221 220 221 223 227 228 226 229 231 230 230 232 232 233 236 241 251 259 265 272 278 282 285 286 286 287 292 300 306 309 309 309 311 312 312 312 312 311 310 310 313 316 317 318 316 312 310 311 314 318 317 313 311
221 222 223 223 223 224 224 223 225 227 225 225 226 228 230 230 226 226 229 230 230 230 231 232 235 239 247 256 262 268 274 280 284 289 290 289 290 296 303 308 309 308 309 311 311 311 311 310 309 309 311 314 317 317 316 312 310 312 314 316 315 312 310
220 221 223 224 224 226 226 223 224 225 225 227 230 233 234 234 229 225 226 229 229 228 228 231 233 238 245 253 260 265 272 278 281 287 293 292 290 294 300 305 308 307 307 309 310 309 309 308 307 307 308 312 315 317 316 313 311 312 314 314 312 310 309
221 222 224 225 225 227 226 224 224 223 223 225 230 236 238 236 234 229 225 225 228 226 224 228 232 236 243 250 257 263 268 275 279 285 292 295 293 293 296 301 305 305 305 307 308 307 306 305 304 304 305 309 313 316 316 314 311 311 312 312 310 309 308
221 224 227 226 226 226 226 226 225 224 224 226 230 236 239 235 233 231 226 224 226 224 220 224 229 233 241 249 255 261 266 272 277 282 290 295 295 293 293 297 300 302 304 305 305 304 303 302 301 301 303 306 310 315 316 313 310 309 309 309 308 307 307
217 221 226 227 227 226 227 228 228 227 227 229 232 236 238 233 231 232 228 225 225 221 217 220 226 230 239 248 253 259 265 270 274 279 286 292 294 292 292 293 296 299 301 302 301 301 300 299 299 299 301 304 308 313 314 312 308 306 306 306 305 305 306
217 218 221 224 226 227 227 229 231 229 229 232 235 235 234 231 232 234 232 228 226 221 216 218 223 228 236 245 252 257 263 268 272 276 282 288 292 292 290 290 293 296 299 299 298 298 298 298 298 298 300 302 306 311 312 310 307 304 302 302 302 303 304
221 222 222 222 222 225 226 228 231 231 230 233 237 237 232 229 230 231 232 231 229 222 218 219 222 226 233 241 248 254 259 264 269 274 278 284 289 291 289 289 291 294 296 297 296 295 296 297 297 297 299 301 304 307 310 310 307 301 298 298 298 300 302
221 224 224 222 221 223 225 227 231 232 232 234 238 237 234 229 227 227 231 233 229 223 221 222 223 226 232 238 244 250 256 261 266 271 276 280 285 289 289 289 290 292 294 294 294 293 294 295 295 296 298 301 301 303 307 310 306 299 295 295 295 297 301
221 223 225 224 224 225 226 228 231 233 234 237 239 239 237 234 228 226 228 230 227 222 222 224 224 225 229 236 242 247 253 259 263 268 273 277 282 287 289 289 289 289 291 292 293 292 291 292 294 295 297 298 298 300 305 307 304 298 294 293 293 295 299
222 223 225 225 226 227 227 228 231 233 235 237 238 239 240 239 235 230 227 225 222 220 220 223 225 225 228 233 240 245 250 256 261 265 270 274 279 285 287 287 286 286 289 291 292 291 289 290 292 294 294 294 295 297 300 302 301 297 292 290 291 293 296
224 224 225 227 228 228 228 229 230 232 234 236 236 237 238 241 242 237 229 224 220 218 219 224 227 227 228 231 238 243 248 254 259 262 267 273 278 283 284 283 284 285 286 288 289 289 288 287 289 291 290 290 292 293 295 298 298 295 290 288 289 291 294
227 227 227 228 229 229 229 230 232 233 234 236 238 236 233 236 243 239 229 225 223 220 223 229 229 227 229 232 237 242 246 251 257 261 266 272 276 280 281 281 282 283 283 284 286 286 285 284 285 287 287 287 289 290 292 296 296 292 288 287 287 289 292
228 228 228 227 229 231 231 232 234 235 236 237 239 238 233 233 239 238 229 226 223 220 224 232 229 227 230 234 237 241 244 248 255 260 265 271 273 276 278 278 279 279 280 282 283 284 283 282 282 284 285 285 287 288 290 293 293 291 287 284 283 285 289